When you browse on this site, cookies collect data to enhance your experience and personalize the content and advertising you see.
Visit our Privacy Policy to learn more. By continuing to use the site, you agree to this use of cookies and data.
  • In Hungary
  • List of Countries
  • For 7 days
  • Water Temperature
  • Weather Map
  • News
  • Weather Widgets
  • user-avatar
    Login

    Hourly Weather Poplyatino

    Today, 20 January, Monday

    Time Temperature Precipitation Wind Pressure Humidity
    00:00 -4°C° 0 mm 3 mps 757 mmHg 94%
    01:00 -4°C° 0 mm 3 mps 757 mmHg 94%
    02:00 -2°C° 0 mm 3 mps 757 mmHg 94%
    03:00 -2°C° 0 mm 3 mps 757 mmHg 94%
    04:00 -2°C° 0 mm 3 mps 757 mmHg 93%
    05:00 -2°C° 0 mm 3 mps 757 mmHg 93%
    06:00 -3°C° 0 mm 4 mps 757 mmHg 94%
    07:00 -3°C° 0 mm 4 mps 757 mmHg 94%
    08:00 -3°C° 0 mm 4 mps 757 mmHg 95%
    09:00 -3°C° 0 mm 4 mps 757 mmHg 94%
    10:00 -4°C° 0 mm 5 mps 757 mmHg 94%
    11:00 -4°C° 0 mm 5 mps 757 mmHg 93%
    12:00 -2°C° 0 mm 5 mps 757 mmHg 92%
    13:00 -2°C° 0 mm 5 mps 757 mmHg 90%
    14:00 -2°C° 0 mm 5 mps 757 mmHg 88%
    15:00 -2°C° 0 mm 5 mps 757 mmHg 88%
    16:00 -2°C° 0 mm 5 mps 757 mmHg 87%
    17:00 -2°C° 0 mm 5 mps 757 mmHg 86%
    18:00 -2°C° 0 mm 5 mps 757 mmHg 86%
    19:00 -2°C° 0 mm 5 mps 756 mmHg 86%
    20:00 -2°C° 0 mm 5 mps 756 mmHg 86%
    21:00 -4°C° 0 mm 5 mps 756 mmHg 87%
    22:00 -4°C° 0 mm 6 mps 755 mmHg 88%
    23:00 -4°C° 0 mm 6 mps 755 mmHg 90%

    Tomorrow, 21 January, Tuesday

    Time Temperature Precipitation Wind Pressure Humidity
    00:00 -4°C° 0 mm 6 mps 754 mmHg 89%
    01:00 -4°C° 0 mm 6 mps 754 mmHg 88%
    02:00 -3°C° 0 mm 7 mps 753 mmHg 87%
    03:00 -3°C° 0 mm 6 mps 753 mmHg 87%
    04:00 -3°C° 0 mm 6 mps 752 mmHg 87%
    05:00 -2°C° 0 mm 6 mps 751 mmHg 87%
    06:00 -2°C° 0 mm 6 mps 750 mmHg 88%
    07:00 -1°C° 0 mm 6 mps 750 mmHg 89%
    08:00 -1°C° 0 mm 6 mps 749 mmHg 90%
    09:00 -1°C° 0 mm 6 mps 749 mmHg 90%
    10:00 0°C° 0 mm 7 mps 748 mmHg 91%
    11:00 +2°C° 0 mm 7 mps 747 mmHg 91%
    12:00 +2°C° 0 mm 7 mps 747 mmHg 91%
    13:00 +2°C° 0 mm 7 mps 747 mmHg 91%
    14:00 +2°C° 0 mm 7 mps 746 mmHg 91%
    15:00 +2°C° 0 mm 7 mps 745 mmHg 92%
    16:00 +2°C° 0 mm 7 mps 745 mmHg 92%
    17:00 +1°C° 0 mm 8 mps 744 mmHg 92%
    18:00 +1°C° 0 mm 8 mps 744 mmHg 90%
    19:00 +2°C° 0 mm 8 mps 743 mmHg 89%
    20:00 +2°C° 0 mm 9 mps 743 mmHg 87%
    21:00 +2°C° 0 mm 8 mps 743 mmHg 87%
    22:00 +1°C° 0 mm 8 mps 743 mmHg 88%
    23:00 +1°C° 0 mm 8 mps 742 mmHg 89%

    Day after tomorrow, 22 January, Wednesday

    Time Temperature Precipitation Wind Pressure Humidity
    00:00 +1°C° 0 mm 8 mps 742 mmHg 89%
    01:00 +2°C° 0 mm 7 mps 742 mmHg 89%
    02:00 +2°C° 0 mm 7 mps 742 mmHg 89%
    03:00 +2°C° 0 mm 6 mps 742 mmHg 88%
    04:00 +1°C° 0 mm 6 mps 741 mmHg 88%
    05:00 0°C° 0 mm 5 mps 741 mmHg 87%
    06:00 0°C° 0 mm 5 mps 740 mmHg 85%
    07:00 -1°C° 0 mm 4 mps 740 mmHg 83%
    08:00 -1°C° 0 mm 4 mps 739 mmHg 81%
    09:00 -1°C° 0.4 mm 4 mps 739 mmHg 85%
    10:00 -1°C° 0.4 mm 3 mps 739 mmHg 89%
    11:00 -1°C° 0.4 mm 3 mps 738 mmHg 93%
    12:00 -2°C° 0.3 mm 4 mps 738 mmHg 90%
    13:00 -1°C° 0.3 mm 5 mps 737 mmHg 88%
    14:00 -1°C° 0.3 mm 5 mps 737 mmHg 85%
    15:00 -2°C° 0 mm 5 mps 737 mmHg 85%
    16:00 -2°C° 0 mm 5 mps 737 mmHg 86%
    17:00 -2°C° 0 mm 5 mps 737 mmHg 86%
    18:00 -2°C° 0.2 mm 5 mps 738 mmHg 84%
    19:00 -4°C° 0.2 mm 5 mps 738 mmHg 82%
    20:00 -4°C° 0.2 mm 5 mps 738 mmHg 80%
    21:00 -4°C° 0 mm 5 mps 738 mmHg 81%
    22:00 -5°C° 0 mm 5 mps 739 mmHg 83%
    23:00 -5°C° 0 mm 5 mps 739 mmHg 84%

    23 January, Thursday

    Time Temperature Precipitation Wind Pressure Humidity
    00:00 -5°C° 0 mm 5 mps 740 mmHg 84%
    01:00 -5°C° 0 mm 5 mps 740 mmHg 85%
    02:00 -5°C° 0 mm 6 mps 740 mmHg 85%
    03:00 -5°C° 0 mm 6 mps 741 mmHg 84%
    04:00 -5°C° 0 mm 6 mps 741 mmHg 83%
    05:00 -5°C° 0 mm 6 mps 742 mmHg 81%
    06:00 -6°C° 0 mm 6 mps 742 mmHg 77%
    07:00 -7°C° 0 mm 7 mps 743 mmHg 73%
    08:00 -8°C° 0 mm 7 mps 744 mmHg 69%
    09:00 -7°C° 0 mm 7 mps 744 mmHg 65%
    10:00 -7°C° 0 mm 7 mps 745 mmHg 61%
    11:00 -7°C° 0 mm 7 mps 746 mmHg 57%
    12:00 -6°C° 0 mm 7 mps 746 mmHg 56%
    13:00 -6°C° 0 mm 7 mps 746 mmHg 56%
    14:00 -4°C° 0 mm 7 mps 747 mmHg 56%
    15:00 -5°C° 0 mm 6 mps 747 mmHg 59%
    16:00 -5°C° 0 mm 6 mps 747 mmHg 61%
    17:00 -6°C° 0 mm 5 mps 747 mmHg 63%
    18:00 -6°C° 0 mm 5 mps 748 mmHg 67%
    19:00 -5°C° 0 mm 4 mps 748 mmHg 71%
    20:00 -5°C° 0 mm 4 mps 748 mmHg 75%
    21:00 -5°C° 0 mm 4 mps 748 mmHg 77%
    22:00 -5°C° 0 mm 4 mps 748 mmHg 80%
    23:00 -5°C° 0 mm 4 mps 748 mmHg 82%

    24 January, Friday

    Time Temperature Precipitation Wind Pressure Humidity
    00:00 -5°C° 0 mm 4 mps 748 mmHg 84%
    01:00 -4°C° 0 mm 4 mps 747 mmHg 85%
    02:00 -4°C° 0 mm 4 mps 747 mmHg 87%
    03:00 -5°C° 0.1 mm 5 mps 746 mmHg 88%
    04:00 -5°C° 0.1 mm 6 mps 745 mmHg 89%
    05:00 -6°C° 0.1 mm 7 mps 744 mmHg 89%
    06:00 -4°C° 0.8 mm 7 mps 744 mmHg 91%
    07:00 -4°C° 0.8 mm 7 mps 743 mmHg 93%
    08:00 -4°C° 0.8 mm 7 mps 742 mmHg 95%
    09:00 -3°C° 0.4 mm 7 mps 742 mmHg 96%
    10:00 -2°C° 0.4 mm 7 mps 742 mmHg 96%
    11:00 -2°C° 0.4 mm 7 mps 742 mmHg 97%
    12:00 -1°C° 0 mm 7 mps 742 mmHg 96%
    13:00 -1°C° 0 mm 7 mps 742 mmHg 95%
    14:00 -1°C° 0 mm 7 mps 741 mmHg 93%
    15:00 -1°C° 0 mm 7 mps 742 mmHg 93%
    16:00 -1°C° 0 mm 6 mps 742 mmHg 93%
    17:00 -1°C° 0 mm 6 mps 742 mmHg 93%
    18:00 -1°C° 0 mm 6 mps 742 mmHg 94%
    19:00 0°C° 0 mm 5 mps 742 mmHg 94%
    20:00 0°C° 0 mm 5 mps 743 mmHg 95%
    21:00 0°C° 0 mm 5 mps 743 mmHg 95%
    22:00 0°C° 0 mm 5 mps 743 mmHg 94%
    23:00 0°C° 0 mm 5 mps 743 mmHg 94%

    25 January, Saturday

    Time Temperature Precipitation Wind Pressure Humidity
    00:00 0°C° 0 mm 5 mps 743 mmHg 95%
    01:00 0°C° 0 mm 5 mps 743 mmHg 95%
    02:00 0°C° 0 mm 4 mps 743 mmHg 96%
    03:00 0°C° 0.3 mm 4 mps 743 mmHg 96%
    04:00 0°C° 0.3 mm 4 mps 743 mmHg 96%
    05:00 0°C° 0.3 mm 4 mps 743 mmHg 96%
    06:00 0°C° 0.2 mm 4 mps 743 mmHg 97%
    07:00 0°C° 0.2 mm 4 mps 743 mmHg 97%
    08:00 0°C° 0.2 mm 4 mps 743 mmHg 97%
    09:00 0°C° 0.1 mm 4 mps 743 mmHg 97%
    10:00 0°C° 0.1 mm 4 mps 743 mmHg 97%
    11:00 0°C° 0.1 mm 4 mps 744 mmHg 97%
    12:00 0°C° 0 mm 4 mps 744 mmHg 97%
    13:00 0°C° 0 mm 4 mps 744 mmHg 96%
    14:00 0°C° 0 mm 4 mps 744 mmHg 96%
    15:00 0°C° 0.1 mm 4 mps 744 mmHg 96%
    16:00 -1°C° 0.1 mm 4 mps 744 mmHg 96%
    17:00 -1°C° 0.1 mm 4 mps 744 mmHg 96%
    18:00 -1°C° 0 mm 4 mps 744 mmHg 95%
    19:00 -1°C° 0 mm 4 mps 744 mmHg 95%
    20:00 -1°C° 0 mm 4 mps 744 mmHg 95%
    21:00 -1°C° 0 mm 4 mps 744 mmHg 94%
    22:00 -2°C° 0 mm 4 mps 744 mmHg 94%
    23:00 -2°C° 0 mm 4 mps 744 mmHg 94%
    Show more